Aeroporto :
LOGIN :

Iscrizione | Disclaimer

   EN    FR    IT 

 










Sommario :    VFR   VFR Marginale   IFR   IFR Intensivo   IFR Molto Intensivo
Visibilità : 
Base nubi : 
>= 8 km
>= 3000ft
5 / 8 km
1000 / 3000 ft
1500m / 5 km
500 / 1000 ft
800 / 1500m
200 / 500 ft
< 800m
< 200 ft
Simboli :   Temporali  Nebbia  Neve Forte  Precipitazioni Forti  Vento > 20 kt
SIGMETs :   Varie  Temporali  Ghiacco  Turbolenza  Onda orograficha  Ceneri Vulcaniche






- Altitudine del aeroporto : 1455 ft


ETIH - Hohenfels Army Air Field

ULTIMO METAR :
  • 310956Z AUTO 17003KT 9999 OVC020 13/07 A3028 RMK AO2 SLP256 T01270074 $

METARs OBSOLETI :
  • 310856Z AUTO 00000KT 9999 BKN022 12/08 A3029 RMK AO2 BKN V SCT SLP260 T01200079 50003 $
  • 310851Z AUTO 00000KT 9999 BKN022 12/08 A3029 RMK AO2 BKN V FEW SLP260 $
  • 310756Z AUTO 00000KT 9999 CLR 11/08 A3029 RMK AO2 SLP262 T01100079 $

Previsioni scadute.



MetMap, La meteo Aeronautica in un colpo d'occhio ! - Copyright ORBIFLY Dicembre 2007 - Disclaimer

ORBIFLY MET'MAP TEAM :

Programmazione e sviluppo : Alexandra Zaïnal
Concezione : Baudouin d'Aumeries
Aiuto per la programmazione : Marc-Olivier Méhu
Supporto tecnico e logistico : Manuel Goepfert
Aiuto per la traduzione : Arnaldo La Scala

Contatto : metmap@orbifly.com




FONTI E CREDITI :

   NOAA